Stations météo

réclame
Mon MeteoGroup
Malilla, Suède (2565): Température de l'air & dewpoint: 10.08.2018 03:00:00 - 16.08.2018 03:00:00 (CEST)Malilla, Suède (2565): Vitesse du vent & gusts: 10.08.2018 03:00:00 - 16.08.2018 03:00:00 (CEST)Malilla, Suède (2565): Direction du vent: 10.08.2018 03:00:00 - 16.08.2018 03:00:00 (CEST)Malilla, Suède (2565): reduced air pressure: 10.08.2018 03:00:00 - 16.08.2018 03:00:00 (CEST)Malilla, Suède (2565): visibility: 10.08.2018 03:00:00 - 16.08.2018 03:00:00 (CEST)Malilla, Suède (2565): Quantités de précipitations: 10.08.2018 03:00:00 - 16.08.2018 03:00:00 (CEST)
Date & Time tt [°C] td [°C] ff [km/h] ff [knt] fx [km/h] fx [knt] dd ppp [hPa] vv [km] rr [mm]
16.08.2018 03:00:00 11,3 10,8 0 0 6 3 N 1016,8 16 0,0
16.08.2018 02:00:00 11,9 11,3 0 0 6 3 N 1016,8 10 0,0
16.08.2018 01:00:00 13,0 12,4 4 2 6 3 SW 1016,8 16 0,0
16.08.2018 00:00:00 13,6 12,8 3 2 4 2 SW 1016,3 18 0,0
15.08.2018 23:00:00 14,5 13,5 3 1 5 3 WSW 1016,1 20 0,0
15.08.2018 22:00:00 15,8 14,5 3 2 5 3 SSE 1015,7 17 0,0
15.08.2018 21:00:00 17,4 14,3 0 0 6 3 N 1015,1 20 0,0
15.08.2018 20:00:00 19,2 14,0 2 1 18 10 SSE 1014,5 17 0,0
15.08.2018 19:00:00 21,2 12,1 4 2 22 12 W 1014,2 23 0,0
15.08.2018 18:00:00 22,9 10,3 6 3 24 13 W 1013,7 50 0,0
15.08.2018 17:00:00 22,7 8,8 11 6 24 13 WNW 1013,4 45 0,0
15.08.2018 16:00:00 22,8 11,8 12 6 21 12 WSW 1013,1 44 0,0
15.08.2018 15:00:00 21,2 13,4 10 6 19 10 WSW 1013,1 49 0,0
15.08.2018 14:00:00 21,2 13,9 11 6 21 11 WSW 1012,8 50 0,0
15.08.2018 13:00:00 20,8 14,0 10 6 21 11 WSW 1012,2 45 0,0
15.08.2018 12:00:00 19,2 14,2 7 4 17 9 W 1012,0 50 0,0
15.08.2018 11:00:00 18,3 14,0 8 5 15 8 W 1011,9 20 0,0
15.08.2018 10:00:00 17,3 14,4 9 5 15 8 W 1011,5 18 0,0
15.08.2018 09:00:00 16,7 14,5 5 3 15 8 W 1010,9 18 0,0
15.08.2018 08:00:00 15,6 14,5 8 4 13 7 WNW 1010,3 15 0,0
15.08.2018 07:00:00 15,7 14,7 5 3 10 5 W 1009,8 15 0,0
15.08.2018 06:00:00 15,5 14,7 4 2 10 5 SW 1009,3 12 0,0
15.08.2018 05:00:00 15,5 14,5 4 2 18 10 W 1009,0 17 0,0
15.08.2018 04:00:00 15,6 14,6 7 4 21 11 WNW 1008,6 16 0,0
15.08.2018 03:00:00 15,6 14,5 7 4 21 11 WNW 1008,1 16 0,0
15.08.2018 02:00:00 15,7 14,7 7 4 19 10 NNW 1007,6 15 0,0
15.08.2018 01:00:00 15,6 14,6 7 4 19 10 NW 1007,3 14 0,0
15.08.2018 00:00:00 16,0 15,0 9 5 17 9 WNW 1007,1 17 0,0
14.08.2018 23:00:00 16,2 15,4 10 5 16 8 NNW 1006,6 11 0,0
14.08.2018 22:00:00 16,6 15,8 7 4 17 9 NW 1006,4 11 0,0
14.08.2018 21:00:00 16,4 15,6 5 3 17 9 NNW 1006,2 17 0,0
14.08.2018 20:00:00 17,2 16,2 6 3 13 7 NNW 1005,6 16 0,7
14.08.2018 19:00:00 16,8 16,0 8 5 24 13 NW 1005,5 8 1,9
14.08.2018 18:00:00 17,2 16,4 3 1 24 13 NW 1005,4 20 8,0
14.08.2018 17:00:00 17,8 17,2 9 5 16 9 N 1005,1 0,9 10,7
14.08.2018 16:00:00 18,7 16,8 4 2 16 9 NNE 1005,4 14 0,0
14.08.2018 15:00:00 18,3 16,8 7 4 16 9 N 1005,7 14 0,0
14.08.2018 14:00:00 17,6 16,5 7 4 18 10 NNE 1005,9 20 0,0
14.08.2018 13:00:00 17,6 16,3 9 5 18 10 NE 1006,4 24 0,4
14.08.2018 12:00:00 17,2 16,2 6 4 16 8 NNE 1006,9 11 0,9
14.08.2018 11:00:00 16,7 16,1 4 2 14 8 NNE 1007,4 13 4,0
14.08.2018 10:00:00 16,3 15,5 4 2 18 10 NNE 1007,8 16 0,0
14.08.2018 09:00:00 15,8 14,8 9 5 18 10 NE 1008,0 18 0,0
14.08.2018 08:00:00 15,6 14,5 8 4 18 10 N 1008,0 15 0,0
14.08.2018 07:00:00 15,0 14,2 5 3 12 6 N 1008,4 14 0,0
14.08.2018 06:00:00 14,7 14,1 4 2 11 6 N 1008,8 12 0,0
14.08.2018 05:00:00 14,6 13,6 5 3 10 5 N 1008,9 21 0,3
14.08.2018 04:00:00 14,6 13,8 4 2 9 5 NE 1009,3 15 1,0
14.08.2018 03:00:00 14,7 13,9 4 2 9 5 N 1009,7 14 0,3
14.08.2018 02:00:00 14,9 13,4 0 0 9 5 N 1010,1 26 0,0
14.08.2018 01:00:00 15,6 12,7 5 3 9 5 ESE 1010,1 20 0,0
14.08.2018 00:00:00 15,7 12,4 4 2 10 6 E 1009,8 23 0,0
13.08.2018 23:00:00 15,8 12,2 4 2 10 6 E 1009,8 21 0,0
13.08.2018 22:00:00 15,4 12,3 3 2 12 6 ENE 1009,6 21 0,0
13.08.2018 21:00:00 16,4 10,9 6 3 16 9 E 1009,7 19 0,0
13.08.2018 20:00:00 18,0 10,9 7 4 18 10 ESE 1009,5 19 0,0
13.08.2018 19:00:00 19,3 9,8 8 5 25 13 SE 1009,2 21 0,0
13.08.2018 18:00:00 20,5 8,5 13 7 25 13 S 1009,2 21 0,0
13.08.2018 17:00:00 20,6 8,2 8 4 18 10 SSE 1009,3 26 0,0
13.08.2018 16:00:00 21,5 7,0 11 6 18 10 SSE 1009,2 22 0,0
13.08.2018 15:00:00 21,8 6,1 5 3 16 9 SSW 1009,3 22 0,0
13.08.2018 14:00:00 21,1 6,2 6 3 20 11 WNW 1009,8 30 0,0
13.08.2018 13:00:00 19,4 6,8 10 6 20 11 NNW 1010,1 22 0,0
13.08.2018 12:00:00 18,9 7,0 6 4 12 7 NE 1010,6 23 0,0
13.08.2018 11:00:00 17,6 5,8 7 4 11 6 WSW 1010,8 45 0,0
13.08.2018 10:00:00 16,4 7,1 3 1 8 4 S 1010,9 50 0,0
13.08.2018 09:00:00 15,0 9,1 0 0 9 5 N 1010,9 46 0,0
13.08.2018 08:00:00 10,9 8,6 5 3 9 5 SSW 1011,3 45 0,0
13.08.2018 07:00:00 8,0 7,6 2 1 6 3 SE 1011,2 16 0,0
13.08.2018 06:00:00 4,9 4,5 0 0 4 2 N 1011,3 12 0,0
13.08.2018 05:00:00 4,9 4,3 0 0 5 3 N 1011,3 13 0,0
13.08.2018 04:00:00 5,3 4,7 0 0 5 3 N 1011,1 13 0,0
13.08.2018 03:00:00 5,7 5,0 0 0 4 2 N 1011,0 18 0,0
13.08.2018 02:00:00 6,5 5,6 0 0 4 2 N 1011,2 20 0,0
13.08.2018 01:00:00 7,5 6,3 4 2 6 3 SW 1011,2 15 0,0
13.08.2018 00:00:00 8,8 6,9 2 1 8 5 SSW 1011,0 19 0,0
12.08.2018 23:00:00 10,0 7,1 3 2 13 7 W 1010,8 19 0,0
12.08.2018 22:00:00 12,7 6,3 5 3 22 12 WSW 1010,4 19 0,0
12.08.2018 21:00:00 15,9 6,9 8 4 36 19 SW 1010,0 19 0,0
12.08.2018 20:00:00 18,0 4,9 19 10 44 24 SW 1009,5 16 0,0
12.08.2018 19:00:00 19,1 5,5 23 12 45 24 WSW 1009,1 23 0,0
12.08.2018 18:00:00 18,9 6,0 32 17 51 27 SW 1009,1 26 0,0
12.08.2018 17:00:00 20,1 5,7 27 15 53 28 SW 1008,8 21 0,0
12.08.2018 16:00:00 20,6 5,4 28 15 53 28 WSW 1008,6 18 0,0
12.08.2018 15:00:00 19,3 6,1 29 16 47 25 SW 1008,7 24 0,0
12.08.2018 14:00:00 19,3 7,1 29 16 46 25 SW 1008,6 17 0,0
12.08.2018 13:00:00 19,0 7,4 26 14 46 25 WSW 1008,6 16 0,0
12.08.2018 12:00:00 18,7 9,7 27 14 46 25 SW 1008,5 12 0,0
12.08.2018 11:00:00 16,5 11,0 24 13 42 23 SW 1008,5 17 0,0
12.08.2018 10:00:00 15,4 10,8 25 14 42 23 SW 1008,5 47 0,0
12.08.2018 09:00:00 14,7 9,9 24 13 35 19 SW 1008,1 29 0,0
12.08.2018 08:00:00 13,4 10,4 21 11 35 19 SW 1007,6 18 0,0
12.08.2018 07:00:00 12,6 11,2 14 8 24 13 SW 1007,5 19 0,0
12.08.2018 06:00:00 11,7 10,9 9 5 19 11 SSW 1007,3 17 0,0
12.08.2018 05:00:00 11,2 10,6 9 5 16 9 WSW 1007,5 21 0,0
12.08.2018 04:00:00 10,8 10,2 9 5 14 7 SW 1007,7 20 0,3
12.08.2018 03:00:00 10,3 9,8 6 3 9 5 SW 1008,1 20 0,1
12.08.2018 02:00:00 9,4 8,9 4 2 10 5 SW 1008,2 13 0,0
12.08.2018 01:00:00 9,8 9,3 5 3 8 4 WSW 1008,6 18 0,0
12.08.2018 00:00:00 10,5 9,9 6 3 22 12 S 1008,7 12 0,0
11.08.2018 23:00:00 12,0 11,1 7 4 22 12 SW 1009,3 17 0,0
11.08.2018 22:00:00 11,8 11,3 3 2 9 5 SSW 1009,9 3,3 0,0
11.08.2018 21:00:00 12,2 11,6 4 2 9 5 ENE 1010,2 10 0,3
11.08.2018 20:00:00 12,9 12,1 6 3 12 7 SW 1011,5 12 0,8
11.08.2018 19:00:00 12,9 12,0 6 3 30 16 NE 1011,8 13 2,5
11.08.2018 18:00:00 13,5 11,6 14 7 33 18 SW 1013,5 15 2,0
11.08.2018 17:00:00 13,2 11,4 14 8 33 18 ESE 1013,2 8 2,0
11.08.2018 16:00:00 18,5 10,1 9 5 19 10 E 1012,9 20 0,0
11.08.2018 15:00:00 17,0 11,3 6 4 29 16 E 1013,9 18 0,0
11.08.2018 14:00:00 16,2 11,1 6 3 50 27 ENE 1014,6 28 0,0
11.08.2018 13:00:00 17,6 9,2 20 11 50 27 SE 1016,0 21 0,0
11.08.2018 12:00:00 21,9 6,2 18 10 32 17 SSW 1015,4 31 0,0
11.08.2018 11:00:00 20,8 8,1 19 10 32 17 S 1016,2 20 0,0
11.08.2018 10:00:00 20,6 7,6 17 9 30 16 SSW 1016,7 19 0,0
11.08.2018 09:00:00 18,7 9,7 14 8 27 15 SW 1017,0 34 0,0
11.08.2018 08:00:00 16,4 10,9 5 3 13 7 SSE 1017,4 37 0,0
11.08.2018 07:00:00 13,5 10,5 6 3 9 5 S 1017,7 18 0,0
11.08.2018 06:00:00 8,9 8,3 5 3 8 4 SE 1018,2 40 0,0
11.08.2018 05:00:00 9,2 8,3 2 1 10 5 SSE 1018,0 34 0,0
11.08.2018 04:00:00 10,7 9,0 5 3 11 6 SE 1018,0 24 0,0
11.08.2018 03:00:00 12,0 9,6 8 4 11 6 SE 1018,1 38 0,0
11.08.2018 02:00:00 13,0 9,8 6 3 12 7 SSE 1018,2 46 0,0
11.08.2018 01:00:00 13,5 9,2 5 3 12 7 SSW 1018,2 20 0,0
11.08.2018 00:00:00 14,2 8,8 7 4 19 11 SSE 1017,9 21 0,0
10.08.2018 23:00:00 15,6 8,3 9 5 26 14 S 1017,5 20 0,0
10.08.2018 22:00:00 17,0 8,4 11 6 30 16 S 1017,0 19 0,0
10.08.2018 21:00:00 18,3 8,0 16 9 47 25 SSW 1016,4 27 0,0
10.08.2018 20:00:00 19,4 8,1 22 12 47 25 SW 1015,6 21 0,0
10.08.2018 19:00:00 19,9 8,9 26 14 54 29 SW 1014,9 20 0,0
10.08.2018 18:00:00 21,0 10,2 29 16 54 29 SW 1014,2 22 0,0
10.08.2018 17:00:00 22,6 9,7 25 14 54 29 SSW 1013,3 19 0,0
10.08.2018 16:00:00 22,8 10,6 30 16 51 27 SW 1012,7 19 0,0
10.08.2018 15:00:00 23,1 11,5 28 15 54 29 SSW 1012,1 19 0,0
10.08.2018 14:00:00 23,6 11,3 26 14 54 29 SSW 1011,1 24 0,0
10.08.2018 13:00:00 23,4 13,6 20 11 49 27 S 1010,6 18 0,0
10.08.2018 12:00:00 22,9 13,9 22 12 45 24 S 1010,2 21 0,0
10.08.2018 11:00:00 23,2 15,8 24 13 42 23 S 1009,3 20 0,0
10.08.2018 10:00:00 22,5 17,8 22 12 42 23 SSE 1008,7 21 0,0
10.08.2018 09:00:00 21,5 18,7 13 7 28 15 SSE 1008,2 16 0,0
10.08.2018 08:00:00 21,0 19,6 10 5 14 8 SE 1007,9 11 0,0
10.08.2018 07:00:00 18,8 18,3 4 2 17 9 S 1007,5 4,9 0,0
10.08.2018 06:00:00 18,5 17,8 2 1 46 25 NNW 1007,2 7 1,9
10.08.2018 05:00:00 18,1 17,5 6 3 46 25 NNE 1007,8 7 6,9
10.08.2018 04:00:00 20,8 17,4 7 4 14 8 ENE 1008,4 16 0,0
10.08.2018 03:00:00 16,7 13,6 3 2 7 4 NNE 1009,6 17 0,0

tt = Température de l'air
td = dewpoint
ff = Vitesse du vent
fx = gusts
dd = Direction du vent
ppp = reduced air pressure
vv = visibility
rr = Quantités de précipitations

stations d'obs. à proximité